Overview Statistics Trail Chart Weather Telemetry Raw packets
 

This is the latest recevied weather packets stored in our database for station/object 4S6DRJ-13. If no packets are shown the sender has not sent any weather packets the latest 10 day(s).

<< 343 344 345 346 347 348 349 >>
Time Temp. Humidity Pressure Rain* Wind** Luminosity Snow
1787953022 27.78° C 86% 1008.7 hPa 0 mm 0.45 m/s, 224° 0 W/m² -
1787952961 27.78° C 86% 1008.8 hPa 0 mm 1.34 m/s, 227° 0 W/m² -
1787952900 27.78° C 86% 1008.8 hPa 0 mm 1.34 m/s, 216° 0 W/m² -
1787952839 27.78° C 86% 1008.8 hPa 0 mm 0.45 m/s, 211° 0 W/m² -
1787952778 27.78° C 86% 1008.7 hPa 0 mm 1.79 m/s, 264° 0 W/m² -
1787952718 27.78° C 86% 1008.9 hPa 0 mm 1.34 m/s, 214° 0 W/m² -
1787952656 27.78° C 86% 1008.8 hPa 0 mm 1.34 m/s, 222° 0 W/m² -
1787952595 27.78° C 86% 1008.7 hPa 0 mm 0.45 m/s, 230° 0 W/m² -
1787952534 27.78° C 86% 1008.9 hPa 0 mm 0.89 m/s, 224° 0 W/m² -
1787952473 27.78° C 86% 1008.9 hPa 0 mm 0.89 m/s, 225° 0 W/m² -
1787952412 27.78° C 86% 1008.9 hPa 0 mm 1.34 m/s, 233° 0 W/m² -
1787952351 27.78° C 86% 1008.9 hPa 0 mm 1.34 m/s, 243° 0 W/m² -
1787952290 27.78° C 86% 1008.9 hPa 0 mm 0 m/s 0 W/m² -
1787952229 27.78° C 86% 1009 hPa 0 mm 0 m/s 0 W/m² -
1787952168 27.78° C 86% 1008.9 hPa 0 mm 0.89 m/s, 149° 0 W/m² -
1787952107 27.78° C 86% 1008.9 hPa 0 mm 1.34 m/s, 271° 0 W/m² -
1787952045 27.78° C 86% 1009 hPa 0 mm 1.34 m/s, 234° 0 W/m² -
1787951985 27.78° C 86% 1009 hPa 0 mm 0.89 m/s, 242° 0 W/m² -
1787951924 27.78° C 86% 1009.1 hPa 0 mm 0.89 m/s, 232° 0 W/m² -
1787951863 27.78° C 86% 1009 hPa 0 mm 1.79 m/s, 212° 0 W/m² -
1787951802 27.78° C 86% 1008.9 hPa 0 mm 0.89 m/s, 214° 0 W/m² -
1787951741 27.78° C 86% 1008.9 hPa 0 mm 0.45 m/s, 245° 0 W/m² -
1787951680 27.78° C 85% 1008.8 hPa 0 mm 1.79 m/s, 226° 0 W/m² -
1787951619 27.78° C 85% 1009 hPa 0 mm 1.34 m/s, 212° 0 W/m² -
1787951558 27.78° C 85% 1009 hPa 0 mm 0.45 m/s, 211° 0 W/m² -

* Rain latest hour (hover to see other rain measurements)
** Current wind speed in m/s (hover to see current wind gust speed)